User: anonymous   Login
Location: Radford
(37.1320°N, 80.5770°W)
Time: 19:40:42
(UTC-05:00)
Language:

Okean 1-7 - Orbit

View from above orbital plane
View from above orbital plane
View from above satellite
View from above satellite

Ground track
Ground track

The orbit data is extracted from the following two-line orbital elements,

1 23317U 94066A   17051.54798164  .00000297  00000-0  29980-4 0  9999
2 23317  82.5357 227.9811 0021346  92.1395 268.2266 14.87348184208609
Epoch (UTC): 20 February 2017 13:09:05
Eccentricity: 0.0021346
inclination: 82.5357°
perigee height: 591 km
apogee height: 621 km
right ascension of ascending node: 227.9811°
argument of perigee: 92.1395°
revolutions per day: 14.87348184
mean anomaly at epoch: 268.2266°
orbit number at epoch: 20860

The dashed part of the orbit path shows where the satellite is in the earth's shadow,  

DLR